www.pogodaiklimat.ru

Погода и климат >> Архив погоды >> Южная Африка >> Александер-Бей


ПОГОДА в Александер-Бее

  • Прогноз погоды в Александер-Бее
  • Монитор погоды в Александер-Бее

АРХИВ ПОГОДЫ в Александер-Бее

Время (UTC), дата Ветер
(напр.,м/с)
 
Видим.   Явления Облачность Т
(С)
Тd
(С)
f
(%)
Тe
(С)
Тes
(С)
Комфортность P
(гПа)
Po
(гПа)
Тmin
(С)
Tmax
(С)
R
(мм)
R24
(мм)
S
(см)
15 18.08 ЮЗ 4 н/о н/о +16.4 +13.9 85 +16 +16 1020.3 1017.5 +16.2 +19.4
18 18.08 Ю 6 н/о н/о +15.7 +13.3 86 +14 +14 1022.1 1019.3 +15.6 +19.4
21 18.08 Ю 6 н/о н/о +15.1 +12.8 86 +13 +13 1023.4 1020.5 +15.1 +19.4
00 19.08 З 2 н/о н/о +11.8 +10.5 92 +11 +11 1023.5 1020.6 +11.8 +19.4
03 19.08 Ю 4 н/о н/о +12.4 +11.9 97 +10 +10 1026.1 1023.2 +11.2 +19.4
06 19.08 Ю 5 н/о н/о +11.6 +10.1 91 +9 +9 1026.9 1024.0 +11.2
09 19.08 В 2 н/о н/о +16.8 +11.9 73 +17 +17 1026.9 1024.1 +11.2 +16.8
12 19.08 ЮЗ 9 н/о н/о +21.1 +11.5 54 +23 +23 комфорт 1024.9 1022.1 +11.2 +21.4
21 19.08 ЮЗ 2 н/о н/о +12.6 +9.4 81 +12 +12 1025.3 1022.4 +12.6 +21.4
00 20.08 С 2 н/о н/о +9.6 +7.8 89 +8 +8 1025.1 1022.2 +9.6 +21.4
03 20.08 штиль 0 н/о н/о +6.2 +4.6 89 +5 +5 1024.3 1021.3 +21.4
09 20.08 В 9 н/о н/о +31.2 -3.6 10 +28 +28 жарко 1022.3 1019.6 +31.2
15 20.08 ЮЗ 5 н/о н/о +27.9 +6.9 26 +27 +27 жарко 1020.0 1017.3 +34.3
18 20.08 СЗ 3 н/о н/о +17.0 +7.4 53 +17 +17 1020.7 1017.9 +34.3
21 20.08 ЮВ 2 н/о н/о +14.2 +6.6 60 +14 +14 1022.1 1019.2 +34.3
09 21.08 ЮВ 10 н/о н/о +31.5 -8.1 7 +27 +27 жарко 1020.0 1017.3 +13.3 +31.5
12 21.08 В 8 н/о н/о +36.6 -6.3 6 +32 +32 жарко 1017.8 1015.2 +13.3 +36.6
15 21.08 З 5 н/о н/о +32.0 -0.5 12 +29 +29 жарко 1017.4 1014.7 +32.0 +37.3
21 21.08 ЮЗ 2 н/о н/о +19.7 -5.1 18 +20 +20 1019.8 1017.0 +19.6 +37.3
00 22.08 В 3 н/о н/о +17.3 -1.2 28 +17 +17 1018.7 1015.9 +17.3 +37.3
06 22.08 штиль 0 н/о н/о +15.9 -5.1 23 +16 +16 1019.9 1017.1 +14.9
09 22.08 штиль 0 н/о н/о +28.2 -2.5 13 +25 +25 комфорт 1020.4 1017.7 +14.9 +28.2
12 22.08 З 5 н/о н/о +33.2 -3.5 9 +29 +29 жарко 1018.5 1015.8 +14.9 +34.6
15 22.08 З 5 н/о н/о +25.9 +7.7 31 +26 +26 жарко 1018.6 1015.9 +25.9 +34.6
18 22.08 СЗ 4 н/о н/о +19.6 +7.1 44 +20 +20 1020.3 1017.5 +19.6 +34.6
21 22.08 штиль 0 н/о н/о +16.6 +8.8 60 +17 +17 1021.0 1018.2 +15.7 +34.6
00 23.08 З 1 н/о н/о +13.6 +9.6 77 +14 +14 1020.6 1017.7 +13.6 +34.6
06 23.08 ЮВ 2 н/о н/о +11.7 +2.4 53 +11 +11 1021.0 1018.1 +11.0
09 23.08 З 1 н/о н/о +24.3 +0.8 21 +23 +23 комфорт 1021.0 1018.2 +11.0 +24.3
15 23.08 З 5 н/о н/о +24.1 +9.4 39 +25 +25 комфорт 1019.3 1016.5 +24.1 +30.9
21 23.08 З 3 н/о н/о +14.5 +12.2 86 +14 +14 1022.4 1019.5 +14.5 +30.9
00 24.08 В 3 н/о н/о +13.8 +12.5 92 +13 +13 1020.8 1017.9 +13.7 +30.9
06 24.08 В 1 н/о н/о +11.5 +6.4 71 +11 +11 1021.3 1018.4 +10.3
09 24.08 ЮВ 2 н/о н/о +24.8 +3.6 25 +24 +24 комфорт 1021.3 1018.5 +10.3 +24.8
12 24.08 З 5 н/о н/о +28.2 +4.7 22 +27 +27 жарко 1018.5 1015.8 +10.3 +30.9
15 24.08 З 4 н/о н/о +23.7 +11.2 45 +25 +25 комфорт 1017.8 1015.0 +23.5 +30.9
00 25.08 штиль 0 н/о н/о +13.7 +12.7 94 +13 +13 1021.1 1018.2 +12.4 +30.9
06 25.08 ЮЗ 2 н/о н/о +10.2 +7.8 85 +9 +9 1021.3 1018.4 +9.6
09 25.08 штиль 0 н/о н/о +21.5 +4.7 33 +22 +22 комфорт 1021.4 1018.6 +9.6 +21.5
12 25.08 З 4 н/о н/о +25.2 +8.0 33 +25 +25 комфорт 1019.0 1016.3 +9.6 +28.3

 

Местоположение метеостанции Александер-Бей (Южная Африка): широта -28.56 долгота 16.53 высота над уровнем моря 29 м.

В архиве по умолчанию представлена погода в Александер-Бее за последнюю неделю. Архивные данные за месяц целиком и за предыдущие месяцы, начиная с января 2011 года, Вы можете получить, выбрав интересующий диапазон дат из раскрывающегося списка и нажав кнопку "Ввод!".


*Определитесь, кто Вы:
робот инопланетянин человек

Внимание! Время в таблицах - всемирное. Для получения местного времени необходимо прибавить поправку, которая равна 2 ч.

Смотрите также архив погоды в соседних городах и на ближайших метеорологических станциях:

Погода в Порт Ноллоз (Южная Африка) (82 км)
Погода в Виулсдрифе (Южная Африка) (106 км)
Погода в Спрингбоке (Южная Африка) (181 км)
Погода в Коингнаасе (Южная Африка) (196 км)
Погода в Людерице (Намибия) (257 км)
Погода в Китмансхупе (Намибия) (275 км)
Погода в Пофаддере (Южная Африка) (285 км)
Погода в Портервилле (Южная Африка) (287 км)
Погода на Ауграбисе (Южная Африка) (372 км)
Погода в Фридендале (Южная Африка) (393 км)

Пояснения к столбцам:

Ветер - указаны скорость ветра в м/с - средняя за 10 мин, порывы в срок и между сроками (в фигурных скобках) и направление, откуда дует ветер: С - северный, СВ - северо-восточный, В - восточный, ЮВ - юго-восточный, Ю - южный, ЮЗ - юго-западный, З - западный, СЗ - северо-западный.
Видимость - горизонтальная дальность видимости в метрах или километрах. При видимости от 1 до 10 км при отсутствии осадков обычно наблюдается дымка, при ухудшении видимости до 1 км и менее - туман. В сухую погоду видимость может ухудшаться дымом, пылью или мглою.
Явления - указаны атмосферные явления, наблюдавшиеся в срок или в последний час перед сроком; фигурными скобками обозначены явления, наблюдавшиеся между сроками (за 1-3 часа до срока); квадратными скобками обозначены град или гололедные отложения с указанием их диаметра в мм.
Облачность - указаны через наклонную черту общая и нижняя облачность в баллах и высота нижней границы облаков в метрах; квадратными скобками обозначены формы облаков: Ci - перистые, Cs - перисто-слоистые, Cc - перисто-кучевые, Ac - высококучевые, As - высокослоистые, Sc - слоисто-кучевые, Ns - слоисто-дождевые, Cu - кучевые, Cb - кучево-дождевые. Подробнее классификацию облаков см. в Атласе облаков (PDF).
T - Температура воздуха - температура, измеренная на высоте 2 м над землей.
Td - Температура точки росы - температура, при понижении до которой содержащийся в воздухе водяной пар достигнет насыщения.
f - Относительная влажность воздуха - влажноcть воздуха, измеренная на высоте 2 м над землей.
Te - Эффективная температура - температура, которую ощущает одетый по сезону человек в тени. Характеристика душности погоды. При расчете учитывается влияние влажности воздуха и скорости ветра на теплоощущения человека.
Tes - Эффективная температура на солнце - температура, которую ощущает человек, с поправкой на солнечный нагрев. Характеристика знойности погоды. Зависит от высоты солнца над горизонтом, облачности и скорости ветра. Ночью, в пасмурную погоду, а также при ветре 12 м/с и более поправка равна нулю.
P - Атмосферное давление - приведенное к уровню моря атмосферное давление.
Po - Атмосферное давление - измеренное на уровне метеостанции атмосферное давление.
Tmin - Минимальная температура - минимум температуры воздуха на высоте 2 м над землей.
Tmax - Максимальная температура - максимум температуры воздуха на высоте 2 м над землей.
R - Количество осадков - Количество выпавших осадков за период времени, мм. При наведении курсора мыши на число - период времени, за который выпало указанное количество осадков.
R24 - Количество осадков - Количество выпавших осадков за 24 часа, мм.
S - Снежный покров - Высота снежного покрова, см. При наведении курсора мыши на число - состояние снежного покрова и степень покрытия местности в баллах.